Jackson Hawkins Field, MS

4:44 PM CDT on March 24, 2017 (GMT -0500)
Hawkins

Weather History for KHKS - January, 2014

Change the Weather History Date:

Sunday, January 5, 2014

  Actual Average (KJAN) Record (KJAN)
Temperature  
Mean Temperature 47 °F -  
Max Temperature 64 °F 53 °F 78 °F (1921)
Min Temperature 28 °F 32 °F 11 °F (1969)
Degree Days  
Heating Degree Days 18    
Moisture  
Dew Point 44 °F    
Average Humidity 84    
Maximum Humidity 94    
Minimum Humidity 65    
Precipitation  
Precipitation 0.15 in - - ()
Sea Level Pressure  
Sea Level Pressure 29.95 in    
Wind  
Wind Speed 11 mph (SW)    
Max Wind Speed 30 mph    
Max Gust Speed 40 mph    
Visibility 7 miles    
Events Rain    
Averages and records for this station are not official NWS values.
T = Trace of Precipitation, MM = Missing Value Source: NWS Daily Summary

Daily Weather History Graph

Daily Weather History Graph

Search for Another Location

Airport or City:

Trip Planner

Search our weather history database for the weather conditions in past years. The results will help you decide how hot, cold, wet, or windy it might be!

Date:

Astronomy

Jan. 05, 2014 Rise Set
Actual Time 7:02 AM CST 5:09 PM CST
Civil Twilight 6:35 AM CST 5:36 PM CST
Nautical Twilight 6:05 AM CST 6:07 PM CST
Astronomical Twilight 5:35 AM CST 6:37 PM CST
Moon 10:02 AM CST (1/5) 10:18 PM CST (1/5)
Length of Visible Light 11h 00m
Length of Day
10h 07m
Waxing Crescent, 25% of the Moon is Illuminated
Jan 5
Waxing Crescent
Jan 7
First Quarter
Jan 15
Full
Jan 23
Last Quarter
Jan 30
New

Hourly Weather History & Observations

Time (CST) Temp. Windchill Dew Point Humidity Pressure Visibility Wind Dir Wind Speed Gust Speed Precip Events Conditions
12:53 AM 46.9 °F - 43.0 °F 86% 30.01 in 10.0 mi SE 6.9 mph - N/A   Overcast
1:53 AM 48.0 °F - 44.1 °F 86% 30.01 in 10.0 mi SE 8.1 mph - N/A   Overcast
2:20 AM 48.2 °F - 44.6 °F 87% 30.01 in 9.0 mi SSE 8.1 mph - N/A   Overcast
2:53 AM 46.9 °F - 43.0 °F 86% 29.99 in 9.0 mi SSE 8.1 mph - N/A   Overcast
3:12 AM 46.4 °F 42.4 °F 42.8 °F 87% 30.00 in 9.0 mi SE 8.1 mph - N/A   Overcast
3:53 AM 48.0 °F - 44.1 °F 86% 29.97 in 7.0 mi SE 5.8 mph - N/A   Overcast
4:38 AM 48.2 °F - 44.6 °F 87% 29.97 in 7.0 mi ESE 5.8 mph - N/A   Overcast
4:53 AM 48.0 °F - 44.1 °F 86% 29.96 in 8.0 mi ESE 6.9 mph - N/A   Overcast
5:06 AM 48.2 °F - 44.6 °F 87% 29.97 in 9.0 mi SE 6.9 mph - N/A   Overcast
5:53 AM 48.0 °F - 44.1 °F 86% 29.94 in 7.0 mi SE 9.2 mph - N/A   Overcast
6:44 AM 48.2 °F - 44.6 °F 87% 29.94 in 6.0 mi SE 10.4 mph - N/A   Overcast
6:53 AM 48.0 °F - 45.0 °F 89% 29.93 in 6.0 mi SE 11.5 mph - N/A   Overcast
7:53 AM 50.0 °F - 46.0 °F 86% 29.92 in 6.0 mi SSE 10.4 mph - N/A   Overcast
8:21 AM 51.8 °F - 46.4 °F 82% 29.94 in 6.0 mi SE 8.1 mph - N/A   Overcast
8:53 AM 52.0 °F - 48.0 °F 86% 29.92 in 7.0 mi SE 6.9 mph - N/A   Overcast
9:53 AM 55.0 °F - 48.9 °F 80% 29.91 in 9.0 mi SSE 10.4 mph - N/A   Overcast
10:53 AM 60.1 °F - 51.1 °F 72% 29.88 in 10.0 mi South 18.4 mph 24.2 mph N/A   Mostly Cloudy
11:53 AM 62.1 °F - 51.1 °F 67% 29.83 in 10.0 mi South 19.6 mph 27.6 mph N/A   Overcast
12:53 PM 64.9 °F - 53.1 °F 65% 29.78 in 10.0 mi South 15.0 mph 21.9 mph N/A   Overcast
1:53 PM 61.0 °F - 55.9 °F 83% 29.78 in 4.0 mi SSW 10.4 mph 17.3 mph 0.01 in Rain Light Rain
2:20 PM 60.8 °F - 55.4 °F 82% 29.80 in 1.8 mi WSW 9.2 mph - 0.03 in Rain Rain
2:37 PM 60.8 °F - 57.2 °F 88% 29.81 in 3.0 mi WSW 10.4 mph - 0.07 in Rain Light Rain
2:50 PM 60.8 °F - 57.2 °F 88% 29.81 in 2.5 mi WSW 10.4 mph 17.3 mph 0.08 in Rain Light Rain
2:53 PM 60.1 °F - 57.0 °F 90% 29.80 in 2.5 mi WSW 10.4 mph 17.3 mph 0.08 in Rain Light Rain
3:02 PM 60.8 °F - 57.2 °F 88% 29.82 in 3.0 mi West 9.2 mph - 0.00 in Rain Light Rain
3:09 PM 60.8 °F - 57.2 °F 88% 29.82 in 3.0 mi WSW 12.7 mph - 0.01 in Rain Light Rain
3:18 PM 59.0 °F - 57.2 °F 94% 29.84 in 2.0 mi West 29.9 mph 40.3 mph 0.03 in Rain Rain
3:25 PM 55.4 °F - 53.6 °F 94% 29.85 in 1.2 mi WNW 21.9 mph 40.3 mph 0.04 in Rain Rain
3:51 PM 51.8 °F - 48.2 °F 88% 29.88 in 2.5 mi WNW 19.6 mph 33.4 mph 0.05 in Rain Light Rain
3:53 PM 52.0 °F - 48.9 °F 89% 29.87 in 2.5 mi WNW 19.6 mph 33.4 mph 0.05 in Rain Light Rain
4:00 PM 51.8 °F - 48.2 °F 88% 29.88 in 5.0 mi WNW 17.3 mph - 0.00 in Rain Light Rain
4:20 PM 48.2 °F - 44.6 °F 87% 29.91 in 10.0 mi WNW 15.0 mph 26.5 mph 0.00 in   Overcast
4:27 PM 48.2 °F - 44.6 °F 87% 29.91 in 7.0 mi WNW 18.4 mph 25.3 mph 0.00 in Rain Light Rain
4:43 PM 46.4 °F 39.2 °F 42.8 °F 87% 29.94 in 6.0 mi WNW 18.4 mph 25.3 mph 0.01 in Rain Light Rain
4:53 PM 45.0 °F 37.9 °F 42.1 °F 90% 29.93 in 10.0 mi WNW 16.1 mph 24.2 mph 0.01 in   Overcast
5:53 PM 42.1 °F 34.5 °F 39.0 °F 89% 30.00 in 10.0 mi NW 15.0 mph 24.2 mph N/A   Overcast
6:28 PM 39.2 °F 29.6 °F 35.6 °F 87% 30.04 in 10.0 mi NW 19.6 mph 29.9 mph N/A   Overcast
6:37 PM 39.2 °F 29.6 °F 35.6 °F 87% 30.05 in 10.0 mi NW 19.6 mph 29.9 mph N/A   Overcast
6:53 PM 39.0 °F 31.0 °F 35.1 °F 86% 30.05 in 10.0 mi NW 13.8 mph 27.6 mph N/A   Overcast
7:53 PM 37.0 °F 27.4 °F 30.9 °F 79% 30.09 in 10.0 mi NW 17.3 mph 26.5 mph N/A   Overcast
8:31 PM 33.8 °F 23.2 °F 26.6 °F 75% 30.14 in 10.0 mi NNW 17.3 mph 25.3 mph N/A   Overcast
8:53 PM 33.1 °F 23.4 °F 26.1 °F 75% 30.15 in 10.0 mi NNW 13.8 mph 26.5 mph N/A   Overcast
9:53 PM 30.9 °F 19.4 °F 23.0 °F 72% 30.18 in 10.0 mi NW 17.3 mph 32.2 mph N/A   Overcast
10:53 PM 30.0 °F 18.7 °F 19.9 °F 66% 30.22 in 10.0 mi NNW 16.1 mph 26.5 mph N/A   Overcast
11:53 PM 28.0 °F 17.0 °F 19.0 °F 69% 30.25 in 10.0 mi NNW 13.8 mph 24.2 mph N/A   Overcast